User: anonymous   Login
Location: Veytaux
(46.4185°N, 6.9320°E)
Time: 09:03:08
(UTC+00:00)
Language:

Cosmos 1455 Rocket - Orbit

View from above orbital plane
View from above orbital plane
View from above satellite
View from above satellite

Ground track
Ground track

The orbit data is extracted from the following two-line orbital elements,

1 14033U 83037B   22222.52197720  .00000269  00000-0  29283-4 0  9990
2 14033  82.5074  21.5473 0018559  36.7773 323.4711 14.84015794737340
Epoch (UTC): 10 August 2022 12:31:38
Eccentricity: 0.0018559
inclination: 82.5074°
perigee height: 604 km
apogee height: 629 km
right ascension of ascending node: 21.5473°
argument of perigee: 36.7773°
revolutions per day: 14.84015794
mean anomaly at epoch: 323.4711°
orbit number at epoch: 73734

The dashed part of the orbit path shows where the satellite is in the earth's shadow,  

DLR